Weather History for KBXK - April, 2013

Change the Weather History Date:

Tuesday, April 9, 2013

  Actual Average (KPHX) Record (KPHX)
Temperature  
Mean Temperature 63 °F 71 °F  
Max Temperature 73 °F 83 °F 102 °F (1989)
Min Temperature 53 °F 58 °F 40 °F (1928)
Degree Days  
Heating Degree Days 2 1  
Month to date heating degree days 9  
Since 1 July heating degree days 923  
Cooling Degree Days 0 7  
Month to date cooling degree days 52  
Year to date cooling degree days 156  
Growing Degree Days 13 (Base 50)    
Moisture  
Dew Point 25 °F    
Average Humidity 26    
Maximum Humidity 51    
Minimum Humidity 13    
Precipitation  
Precipitation 0.00 in 0.02 in 0.36 in (1944)
Month to date precipitation 0.15  
Year to date precipitation 2.97  
Snow  
Snow 0.00 in - - ()
Month to date snowfall  
Year to date snowfall  
Since 1 July snowfall  
Snow Depth -    
Sea Level Pressure  
Sea Level Pressure 29.73 in    
Wind  
Wind Speed 12 mph (West)    
Max Wind Speed 25 mph    
Max Gust Speed 37 mph    
Visibility 10 miles    
Events      
T = Trace of Precipitation, MM = Missing Value Source: NWS Daily Summary

Daily Weather History Graph

Daily Weather History Graph

Search for Another Location

Airport or City:

Trip Planner

Search our weather history database for the weather conditions in past years. The results will help you decide how hot, cold, wet, or windy it might be!

Date:

Astronomy

Apr. 09, 2013 Rise Set
Actual Time 6:07 AM MST 6:57 PM MST
Civil Twilight 5:42 AM MST 7:22 PM MST
Nautical Twilight 5:12 AM MST 7:52 PM MST
Astronomical Twilight 4:41 AM MST 8:23 PM MST
Moon 5:31 AM MST (4/9) 6:36 PM MST (4/9)
Length of Visible Light 13h 40m
Length of Day
12h 49m
Waning Crescent, 0% of the Moon is Illuminated
Apr 9
Waning Crescent
Apr 10
New
Apr 18
First Quarter
Apr 25
Full
May 2
Last Quarter

Hourly Weather History & Observations

Time (MST) Temp. Dew Point Humidity Pressure Visibility Wind Dir Wind Speed Gust Speed Precip Events Conditions
12:15 AM 59.0 °F 32.0 °F 36% 29.56 in 10.0 mi West 11.5 mph - N/A   Overcast
12:35 AM 59.0 °F 32.0 °F 36% 29.57 in 10.0 mi West 13.8 mph - N/A   Scattered Clouds
12:55 AM 59.0 °F 33.8 °F 39% 29.57 in 10.0 mi West 15.0 mph - N/A   Mostly Cloudy
1:15 AM 59.0 °F 33.8 °F 39% 29.58 in 10.0 mi West 11.5 mph 18.4 mph N/A   Overcast
1:35 AM 59.0 °F 33.8 °F 39% 29.59 in 10.0 mi NW 25.3 mph 31.1 mph N/A   Overcast
1:55 AM 59.0 °F 35.6 °F 42% 29.60 in 10.0 mi NW 24.2 mph 36.8 mph N/A   Overcast
2:15 AM 59.0 °F 35.6 °F 42% 29.60 in 10.0 mi NNW 21.9 mph 31.1 mph N/A   Overcast
2:35 AM 57.2 °F 35.6 °F 44% 29.60 in 10.0 mi NW 13.8 mph 18.4 mph N/A   Overcast
2:55 AM 57.2 °F 35.6 °F 44% 29.61 in 10.0 mi WNW 6.9 mph - N/A   Overcast
3:15 AM 57.2 °F 35.6 °F 44% 29.61 in 10.0 mi West 3.5 mph - N/A   Overcast
3:35 AM 57.2 °F 35.6 °F 44% 29.61 in 10.0 mi WNW 3.5 mph - N/A   Overcast
3:55 AM 55.4 °F 37.4 °F 51% 29.62 in 10.0 mi Calm Calm - N/A   Overcast
4:15 AM 57.2 °F 32.0 °F 38% 29.62 in 10.0 mi West 8.1 mph - N/A   Overcast
4:35 AM 57.2 °F 33.8 °F 41% 29.63 in 10.0 mi WSW 9.2 mph - N/A   Overcast
4:55 AM 57.2 °F 35.6 °F 44% 29.63 in 10.0 mi SW 13.8 mph - N/A   Overcast
5:15 AM 57.2 °F 35.6 °F 44% 29.64 in 10.0 mi SW 11.5 mph - N/A   Overcast
5:35 AM 55.4 °F 35.6 °F 47% 29.65 in 10.0 mi SW 10.4 mph - N/A   Overcast
5:55 AM 55.4 °F 33.8 °F 44% 29.65 in 9.0 mi SW 10.4 mph - N/A   Overcast
6:15 AM 55.4 °F 33.8 °F 44% 29.66 in 7.0 mi SW 9.2 mph - N/A   Overcast
6:35 AM 55.4 °F 32.0 °F 41% 29.67 in 8.0 mi SW 9.2 mph - N/A   Mostly Cloudy
6:55 AM 55.4 °F 32.0 °F 41% 29.68 in 8.0 mi WSW 9.2 mph - N/A   Mostly Cloudy
7:15 AM 55.4 °F 32.0 °F 41% 29.69 in 8.0 mi WSW 8.1 mph - N/A   Scattered Clouds
7:35 AM 55.4 °F 32.0 °F 41% 29.70 in 9.0 mi SW 8.1 mph - N/A   Partly Cloudy
7:55 AM 59.0 °F 24.8 °F 27% 29.71 in 10.0 mi West 9.2 mph - N/A   Clear
8:15 AM 59.0 °F 23.0 °F 25% 29.72 in 10.0 mi West 12.7 mph 21.9 mph N/A   Clear
8:35 AM 60.8 °F 23.0 °F 23% 29.72 in 10.0 mi West 12.7 mph 19.6 mph N/A   Clear
8:55 AM 62.6 °F 23.0 °F 22% 29.73 in 10.0 mi West 15.0 mph 20.7 mph N/A   Clear
9:15 AM 62.6 °F 23.0 °F 22% 29.73 in 10.0 mi West 15.0 mph 19.6 mph N/A   Clear
9:35 AM 62.6 °F 23.0 °F 22% 29.74 in 10.0 mi West 13.8 mph - N/A   Clear
9:55 AM 64.4 °F 23.0 °F 21% 29.74 in 10.0 mi West 10.4 mph - N/A   Clear
10:15 AM 66.2 °F 23.0 °F 19% 29.75 in 10.0 mi West 10.4 mph 19.6 mph N/A   Clear
10:35 AM 66.2 °F 23.0 °F 19% 29.75 in 10.0 mi West 13.8 mph 18.4 mph N/A   Clear
10:55 AM 66.2 °F 23.0 °F 19% 29.75 in 10.0 mi West 15.0 mph 19.6 mph N/A   Clear
11:15 AM 68.0 °F 23.0 °F 18% 29.75 in 10.0 mi West 12.7 mph 18.4 mph N/A   Clear
11:35 AM 68.0 °F 23.0 °F 18% 29.75 in 10.0 mi WSW 10.4 mph 20.7 mph N/A   Clear
11:55 AM 68.0 °F 21.2 °F 17% 29.75 in 10.0 mi West 10.4 mph 17.3 mph N/A   Clear
12:15 PM 68.0 °F 23.0 °F 18% 29.75 in 10.0 mi SW 12.7 mph 20.7 mph N/A   Clear
12:35 PM 68.0 °F 21.2 °F 17% 29.75 in 10.0 mi West 11.5 mph 18.4 mph N/A   Partly Cloudy
12:55 PM 69.8 °F 23.0 °F 17% 29.74 in 10.0 mi SW 11.5 mph 19.6 mph N/A   Partly Cloudy
1:15 PM 71.6 °F 21.2 °F 15% 29.74 in 10.0 mi WSW 10.4 mph 25.3 mph N/A   Clear
1:35 PM 71.6 °F 21.2 °F 15% 29.74 in 10.0 mi WSW 17.3 mph 23.0 mph N/A   Clear
1:55 PM 71.6 °F 23.0 °F 16% 29.74 in 10.0 mi WSW 17.3 mph 25.3 mph N/A   Clear
2:15 PM 73.4 °F 19.4 °F 13% 29.74 in 10.0 mi West 17.3 mph 24.2 mph N/A   Clear
2:35 PM 73.4 °F 19.4 °F 13% 29.73 in 10.0 mi West 11.5 mph 24.2 mph N/A   Clear
2:55 PM 71.6 °F 19.4 °F 14% 29.73 in 10.0 mi WSW 8.1 mph - N/A   Partly Cloudy
3:15 PM 73.4 °F 19.4 °F 13% 29.73 in 10.0 mi West 11.5 mph 24.2 mph N/A   Clear
3:35 PM 73.4 °F 21.2 °F 14% 29.73 in 10.0 mi West 17.3 mph 24.2 mph N/A   Partly Cloudy
3:55 PM 73.4 °F 21.2 °F 14% 29.73 in 10.0 mi West 17.3 mph 28.8 mph N/A   Partly Cloudy
4:15 PM 71.6 °F 21.2 °F 15% 29.73 in 10.0 mi WNW 8.1 mph 18.4 mph N/A   Partly Cloudy
4:35 PM 71.6 °F 21.2 °F 15% 29.73 in 10.0 mi WSW 16.1 mph 19.6 mph N/A   Scattered Clouds
4:55 PM 73.4 °F 19.4 °F 13% 29.73 in 10.0 mi West 13.8 mph 23.0 mph N/A   Scattered Clouds
5:15 PM 73.4 °F 19.4 °F 13% 29.73 in 10.0 mi West 15.0 mph 23.0 mph N/A   Scattered Clouds
5:35 PM 73.4 °F 19.4 °F 13% 29.74 in 10.0 mi WNW 15.0 mph 24.2 mph N/A   Mostly Cloudy
5:55 PM 73.4 °F 19.4 °F 13% 29.75 in 10.0 mi WNW 11.5 mph - N/A   Scattered Clouds
6:15 PM 71.6 °F 19.4 °F 14% 29.75 in 10.0 mi WNW 13.8 mph 23.0 mph N/A   Mostly Cloudy
6:35 PM 71.6 °F 21.2 °F 15% 29.76 in 10.0 mi NNW 18.4 mph 23.0 mph N/A   Mostly Cloudy
6:55 PM 68.0 °F 21.2 °F 17% 29.77 in 10.0 mi NW 18.4 mph 26.5 mph N/A   Scattered Clouds
7:15 PM 68.0 °F 19.4 °F 16% 29.78 in 10.0 mi NNW 18.4 mph 25.3 mph N/A   Scattered Clouds
7:35 PM 68.0 °F 19.4 °F 16% 29.79 in 10.0 mi NNW 13.8 mph 19.6 mph N/A   Scattered Clouds
7:55 PM 68.0 °F 19.4 °F 16% 29.81 in 10.0 mi NNW 18.4 mph 25.3 mph N/A   Mostly Cloudy
8:15 PM 66.2 °F 21.2 °F 18% 29.82 in 10.0 mi NNW 15.0 mph 19.6 mph N/A   Mostly Cloudy
8:35 PM 66.2 °F 21.2 °F 18% 29.84 in 10.0 mi NW 9.2 mph - N/A   Scattered Clouds
8:55 PM 64.4 °F 21.2 °F 19% 29.85 in 10.0 mi NW 6.9 mph - N/A   Clear
9:15 PM 62.6 °F 21.2 °F 20% 29.86 in 10.0 mi NW 6.9 mph - N/A   Clear
9:35 PM 62.6 °F 21.2 °F 20% 29.87 in 10.0 mi NNW 8.1 mph - N/A   Clear
9:55 PM 59.0 °F 19.4 °F 22% 29.87 in 10.0 mi North 9.2 mph - N/A   Clear
10:15 PM 59.0 °F 19.4 °F 22% 29.87 in 10.0 mi North 4.6 mph - N/A   Clear
10:35 PM 59.0 °F 19.4 °F 22% 29.88 in 10.0 mi North 4.6 mph - N/A   Clear
10:55 PM 53.6 °F 26.6 °F 35% 29.89 in 10.0 mi SSW 3.5 mph - N/A   Clear
11:15 PM 59.0 °F 19.4 °F 22% 29.90 in 10.0 mi WNW 4.6 mph - N/A   Clear
11:35 PM 57.2 °F 19.4 °F 23% 29.90 in 10.0 mi WNW 4.6 mph - N/A   Clear
11:55 PM 57.2 °F 19.4 °F 23% 29.91 in 10.0 mi NNW 5.8 mph - N/A   Scattered Clouds